Updated03/06/2020 08:00 
 

GeoURL
free counters
Scottish Weather Network UK Weather Network Cumulus Top Weather Sites

Peebles Weather - UV Forecast

Raw Data, Raw Data Expanded

Ignore low humidity and Dew Point values. Something wrong with the sensor.
Daytime temperatures are in direct sunlight so may be higher than official air temperature values.
As with any other website, we log your IP address and browser type in the server logs for diagnostic reasons. Cookies are used to record visit time and gauges preferences. No personal information is stored or processed.

All times are in local time (GMT, or BST in summer) unless specified.

2020/06/03 06:50 EGPH 030650Z 05008KT 9999 BKN023 09/06 Q1017
9.4°C 0.0 mm 8.4 mm 13.5 mm 2.5 mph 6.9 mph 1012.0 hPa 69% X-Ray Solar Flare Level
Planetary K-Index
Planetary K-Index History
Station Warn Rain Snow Flood Wind Ltng Heat Cold Glob Moon Temp Rain 1h Rain Wed Rain 24h Wind 10m Gust Pressure Hum Proton Levels
Lost sensor contact!!!
m Waxing Gibbous Cool F1-E F: A: Kp:0 SSN:0

UV Index Forecast

 

Wed Thu Fri Sat Sun Mon
UV Index UV Index UV Index UV Index UV Index UV Index
5.8 5.6 5.1 5.2 5.8 5.9
 High   High   Medium   Medium   High   High 

UV forecast courtesy of and Copyright © KNMI/ESA (http://www.temis.nl/). Used with permission.

UV Index Legend
UV Index Scale

 

XHTML 1.1 | CSS